Radioactive Concentration measured by Seawater Radiation Monitor near Fukushima Daiichi Nuclear Power Station
Date,Time,Cs137(Bq/L),Cs134(Bq/L),Total β(Bq/L)
2016/12/10,00:00,0.84,0.073,ND
2016/12/10,00:10,0.83,0.062,ND
2016/12/10,00:20,0.84,0.056,ND
2016/12/10,00:30,0.83,0.071,9.6
2016/12/10,00:40,0.84,0.069,8.8
2016/12/10,00:50,0.87,0.064,10
2016/12/10,01:00,0.87,0.073,9.0
2016/12/10,01:10,0.90,0.077,ND
2016/12/10,01:20,0.94,0.083,ND
2016/12/10,01:30,0.94,0.072,ND
2016/12/10,01:40,0.92,0.083,ND
2016/12/10,01:50,0.75,0.12,ND
2016/12/10,02:00,0.91,0.082,9.0
2016/12/10,02:10,0.91,0.082,11
2016/12/10,02:20,0.91,0.087,12
2016/12/10,02:30,0.93,0.086,14
2016/12/10,02:40,0.97,0.072,12
2016/12/10,02:50,0.99,0.070,13
2016/12/10,03:00,1.0,0.069,13
2016/12/10,03:10,1.0,0.070,13
2016/12/10,03:20,0.97,0.080,13
2016/12/10,03:30,0.97,0.083,12
2016/12/10,03:40,0.99,0.087,12
2016/12/10,03:50,0.99,0.087,9.5
2016/12/10,04:00,1.0,0.089,9.3
2016/12/10,04:10,1.0,0.082,ND
2016/12/10,04:20,1.1,0.077,ND
2016/12/10,04:30,1.1,0.086,ND
2016/12/10,04:40,1.1,0.097,ND
2016/12/10,04:50,1.1,0.096,9.7
2016/12/10,05:00,1.1,0.088,10
2016/12/10,05:10,1.1,0.093,10
2016/12/10,05:20,1.1,0.086,10
2016/12/10,05:30,1.1,0.082,9.0
2016/12/10,05:40,1.1,0.080,ND
2016/12/10,05:50,0.91,0.11,ND
2016/12/10,06:00,1.0,0.097,ND
2016/12/10,06:10,1.0,0.098,ND
2016/12/10,06:20,1.0,0.10,ND
2016/12/10,06:30,1.0,0.11,ND
2016/12/10,06:40,1.0,0.10,ND
2016/12/10,06:50,1.0,0.095,ND
2016/12/10,07:00,1.0,0.087,ND
2016/12/10,07:10,1.0,0.086,ND
2016/12/10,07:20,1.0,0.082,ND
2016/12/10,07:30,1.0,0.076,ND
2016/12/10,07:40,0.99,0.074,ND
2016/12/10,07:50,0.97,0.078,9.5
2016/12/10,08:00,0.93,0.076,9.6
2016/12/10,08:10,0.93,0.067,9.0
2016/12/10,08:20,0.89,0.071,9.3
2016/12/10,08:30,0.89,0.065,9.7
2016/12/10,08:40,0.88,0.073,ND
2016/12/10,08:50,0.76,0.11,ND
2016/12/10,09:00,0.74,0.11,8.8
2016/12/10,09:10,0.75,0.12,ND
2016/12/10,09:20,0.76,0.12,ND
2016/12/10,09:30,0.84,0.080,ND
2016/12/10,09:40,0.84,0.079,ND
2016/12/10,09:50,0.84,0.080,ND
2016/12/10,10:00,0.82,0.089,ND
2016/12/10,10:10,0.79,0.090,ND
2016/12/10,10:20,0.81,0.085,ND
2016/12/10,10:30,0.81,0.086,ND
2016/12/10,10:40,0.80,0.080,ND
2016/12/10,10:50,0.80,0.081,ND
2016/12/10,11:00,0.82,0.076,9.0
2016/12/10,11:10,0.84,0.071,10
2016/12/10,11:20,0.68,0.092,10
2016/12/10,11:30,0.69,0.089,9.7
2016/12/10,11:40,0.83,0.058,11
2016/12/10,11:50,0.81,0.061,9.2
2016/12/10,12:00,0.81,0.061,9.2
2016/12/10,12:10,0.83,0.063,ND
2016/12/10,12:20,0.74,0.11,ND
2016/12/10,12:30,0.76,0.11,ND
2016/12/10,12:40,0.76,0.12,ND
2016/12/10,12:50,0.78,0.12,ND
2016/12/10,13:00,0.94,0.070,ND
2016/12/10,13:10,0.93,0.073,ND
2016/12/10,13:20,0.91,0.075,ND
2016/12/10,13:30,0.90,0.077,ND
2016/12/10,13:40,0.91,0.072,ND
2016/12/10,13:50,0.93,0.065,ND
2016/12/10,14:00,0.93,0.062,ND
2016/12/10,14:10,0.93,0.056,ND
2016/12/10,14:20,0.96,0.049,ND
2016/12/10,14:30,0.97,0.072,ND
2016/12/10,14:40,0.98,0.082,ND
2016/12/10,14:50,0.99,0.081,9.0
2016/12/10,15:00,0.99,0.093,9.3
2016/12/10,15:10,1.0,0.10,11
2016/12/10,15:20,0.99,0.11,10
2016/12/10,15:30,1.0,0.090,11
2016/12/10,15:40,1.0,0.080,ND
2016/12/10,15:50,1.0,0.096,ND
2016/12/10,16:00,1.1,0.099,ND
2016/12/10,16:10,1.1,0.098,ND
2016/12/10,16:20,1.1,0.099,ND
2016/12/10,16:30,1.1,0.095,ND
2016/12/10,16:40,1.1,0.097,ND
2016/12/10,16:50,1.1,0.085,ND
2016/12/10,17:00,1.1,0.075,ND
2016/12/10,17:10,1.1,0.074,ND
2016/12/10,17:20,1.1,0.072,ND
2016/12/10,17:30,1.0,0.086,ND
2016/12/10,17:40,0.99,0.089,ND
2016/12/10,17:50,0.97,0.088,ND
2016/12/10,18:00,0.97,0.093,ND
2016/12/10,18:10,0.97,0.092,ND
2016/12/10,18:20,0.96,0.089,ND
2016/12/10,18:30,0.96,0.089,ND
2016/12/10,18:40,0.98,0.093,ND
2016/12/10,18:50,0.98,0.10,ND
2016/12/10,19:00,0.96,0.096,ND
2016/12/10,19:10,0.94,0.10,ND
2016/12/10,19:20,0.96,0.093,ND
2016/12/10,19:30,0.95,0.097,ND
2016/12/10,19:40,0.97,0.088,ND
2016/12/10,19:50,0.96,0.085,9.7
2016/12/10,20:00,0.98,0.076,ND
2016/12/10,20:10,0.98,0.079,ND
2016/12/10,20:20,0.99,0.085,ND
2016/12/10,20:30,0.90,0.12,ND
2016/12/10,20:40,0.92,0.12,ND
2016/12/10,20:50,0.91,0.12,ND
2016/12/10,21:00,1.0,0.078,ND
2016/12/10,21:10,1.0,0.074,ND
2016/12/10,21:20,0.98,0.072,ND
2016/12/10,21:30,0.97,0.069,ND
2016/12/10,21:40,0.95,0.063,ND
2016/12/10,21:50,0.95,0.072,ND
2016/12/10,22:00,0.91,0.085,ND
2016/12/10,22:10,0.92,0.085,ND
2016/12/10,22:20,0.92,0.087,ND
2016/12/10,22:30,0.91,0.084,ND
2016/12/10,22:40,0.88,0.090,ND
2016/12/10,22:50,0.89,0.083,ND
2016/12/10,23:00,0.92,0.068,ND
2016/12/10,23:10,0.92,0.073,ND
2016/12/10,23:20,0.90,0.078,ND
2016/12/10,23:30,0.91,0.071,ND
2016/12/10,23:40,0.92,0.070,ND
2016/12/10,23:50,0.90,0.074,ND
